Guymon, OK

11:54 AM CST on December 07, 2016 (GMT -0600)
Guymon Municipal

Weather History for KGUY - December, 2012

Change the Weather History Date:

Friday, December 14, 2012

  Actual Average Record
Temperature  
Mean Temperature 45 °F 35 °F  
Max Temperature 58 °F 48 °F 65 °F (2006)
Min Temperature 32 °F 22 °F 7 °F (2008)
Degree Days  
Heating Degree Days 20 30  
Month to date heating degree days 306 399  
Since 1 July heating degree days 1039 1290  
Cooling Degree Days 0 0  
Month to date cooling degree days 0 0  
Year to date cooling degree days 1917 1482  
Moisture  
Dew Point 38 °F    
Average Humidity 66    
Maximum Humidity 92    
Minimum Humidity 40    
Precipitation  
Precipitation 0.70 in 0.01 in 0.70 in (2012)
Month to date precipitation 0.70 0.35  
Year to date precipitation 11.49 19.01  
Snow  
Snow 0.00 in - - ()
Month to date snowfall 0.0  
Since 1 July snowfall 0.0  
Snow Depth 0.00 in    
Sea Level Pressure  
Sea Level Pressure 29.65 in    
Wind  
Wind Speed 12 mph (SSW)    
Max Wind Speed 33 mph    
Max Gust Speed 41 mph    
Visibility 9 miles    
Events Rain , Thunderstorm    
T = Trace of Precipitation, MM = Missing Value Source: NWS Daily Summary

Daily Weather History Graph

Daily Weather History Graph

Search for Another Location

Airport or City:

Trip Planner

Search our weather history database for the weather conditions in past years. The results will help you decide how hot, cold, wet, or windy it might be!

Date:

Astronomy

Dec. 14, 2012 Rise Set
Actual Time 7:50 AM CST 5:31 PM CST
Civil Twilight 7:21 AM CST 6:00 PM CST
Nautical Twilight 6:49 AM CST 6:32 PM CST
Astronomical Twilight 6:18 AM CST 7:03 PM CST
Moon 8:58 AM CST (12/14) 7:24 PM CST (12/14)
Length of Visible Light 10h 38m
Length of Day
9h 40m
Waxing Crescent, 3% of the Moon is Illuminated
Dec 14
Waxing Crescent
Dec 19
First Quarter
Dec 28
Full
Jan 4
Last Quarter
Jan 11
New

Hourly Weather History & Observations

Time (CST) Temp. Windchill Dew Point Humidity Pressure Visibility Wind Dir Wind Speed Gust Speed Precip Events Conditions
12:53 AM 35.1 °F 28.6 °F 15.1 °F 44% 29.91 in 10.0 mi SSW 8.1 mph - N/A   Clear
1:53 AM 34.0 °F 27.2 °F 19.0 °F 54% 29.90 in 10.0 mi SSW 8.1 mph - N/A   Clear
2:53 AM 39.9 °F 33.9 °F 28.9 °F 65% 29.87 in 10.0 mi SSW 9.2 mph - N/A   Clear
3:53 AM 37.9 °F 32.7 °F 28.9 °F 70% 29.87 in 10.0 mi SSW 6.9 mph - N/A   Clear
4:53 AM 37.0 °F 31.0 °F 28.9 °F 73% 29.84 in 10.0 mi South 8.1 mph - N/A   Clear
5:53 AM 35.1 °F 31.0 °F 28.9 °F 78% 29.86 in 10.0 mi SSW 4.6 mph - N/A   Clear
6:53 AM 37.9 °F 33.5 °F 32.0 °F 79% 29.85 in 10.0 mi South 5.8 mph - N/A   Clear
7:53 AM 39.0 °F 35.7 °F 34.0 °F 82% 29.85 in 10.0 mi South 4.6 mph - N/A   Clear
8:53 AM 42.1 °F 37.1 °F 37.0 °F 82% 29.83 in 10.0 mi South 8.1 mph - N/A   Overcast
9:53 AM 46.0 °F 40.2 °F 39.9 °F 79% 29.81 in 10.0 mi South 12.7 mph - N/A   Overcast
10:43 AM 50.0 °F - 42.8 °F 76% 29.81 in 10.0 mi South 15.0 mph 23.0 mph N/A   Overcast
10:53 AM 51.1 °F - 43.0 °F 74% 29.78 in 10.0 mi South 17.3 mph - N/A   Overcast
11:53 AM 51.1 °F - 44.1 °F 77% 29.75 in 10.0 mi South 16.1 mph - 0.00 in   Overcast
1:53 PM 55.9 °F - 46.0 °F 69% 29.62 in 10.0 mi South 19.6 mph 27.6 mph N/A   Overcast
2:49 PM 55.4 °F - 46.4 °F 72% 29.61 in 10.0 mi South 12.7 mph 21.9 mph N/A   Overcast
2:53 PM 55.9 °F - 46.0 °F 69% 29.57 in 10.0 mi SSE 12.7 mph 21.9 mph N/A   Overcast
3:53 PM 57.0 °F - 46.0 °F 67% 29.50 in 10.0 mi SSE 11.5 mph - N/A   Overcast
4:53 PM 53.1 °F - 48.9 °F 86% 29.49 in 7.0 mi SSE 15.0 mph 23.0 mph 0.01 in Rain , Thunderstorm Thunderstorms and Rain
5:07 PM 51.8 °F - 50.0 °F 94% 29.55 in 2.0 mi SSE 12.7 mph 23.0 mph 0.12 in Rain , Thunderstorm Heavy Thunderstorms and Rain
5:13 PM 48.2 °F - 48.2 °F 100% 29.51 in 1.0 mi West 8.1 mph 23.0 mph 0.58 in Rain , Thunderstorm Heavy Thunderstorms and Rain
5:21 PM 46.4 °F 41.1 °F 44.6 °F 93% 29.54 in 3.0 mi WNW 11.5 mph 28.8 mph 0.69 in Rain , Thunderstorm Light Thunderstorms and Rain
5:33 PM 46.4 °F 41.1 °F 42.8 °F 87% 29.54 in 10.0 mi West 11.5 mph - 0.69 in   Overcast
5:53 PM 45.0 °F 43.5 °F 43.0 °F 93% 29.51 in 10.0 mi West 3.5 mph - 0.69 in   Mostly Cloudy
6:53 PM 44.1 °F 41.5 °F 42.1 °F 93% 29.47 in 10.0 mi ESE 4.6 mph - N/A   Overcast
7:31 PM 44.6 °F 37.4 °F 41.0 °F 87% 29.51 in 10.0 mi South 16.1 mph - N/A   Overcast
7:53 PM 45.0 °F 37.9 °F 41.0 °F 86% 29.47 in 10.0 mi SSW 16.1 mph - N/A   Overcast
8:53 PM 45.0 °F 36.4 °F 39.0 °F 80% 29.43 in 10.0 mi SW 23.0 mph - N/A   Mostly Cloudy
9:53 PM 46.0 °F 39.0 °F 37.0 °F 71% 29.43 in 10.0 mi WSW 17.3 mph - N/A   Mostly Cloudy
10:53 PM 46.9 °F - 35.1 °F 63% 29.44 in 10.0 mi WSW 26.5 mph 34.5 mph N/A   Overcast
11:53 PM 44.1 °F 35.9 °F 33.1 °F 65% 29.47 in 10.0 mi WSW 19.6 mph 25.3 mph N/A   Scattered Clouds